Flight Track Log - Related Links

Times and Time Zones

All times are in EDT time to prevent confusion due to time zone crossing. See the WIG7117 flight status page for this flight to view local times or setup timezone preferences in your user account.

Time Position Orientation Groundspeed Altitude Reporting Facility
EDT Latitude Longitude Course Direction KTS MPH feet Rate Location/Type
Tue 10:23:49 PM 42.7486 -73.8028 283° West 75 86 1,000  Level Boston Center
Tue 10:24:20 PM 42.7506 -73.8142 283° West 63 72 1,600 1,253 Climbing Boston Center
Tue 10:25:20 PM 42.7608 -73.8314 309° West 49 56 2,900 1,091 Climbing Boston Center
Tue 10:26:21 PM 42.7689 -73.8569 293° West 78 90 3,800 885 Climbing Boston Center
Tue 10:27:22 PM 42.7747 -73.8883 284° West 98 113 4,700 992 Climbing Boston Center
Tue 10:28:22 PM 42.7806 -73.9225 283° West 96 110 5,800 1,041 Climbing Boston Center
Tue 10:29:23 PM 42.7864 -73.9564 283° West 95 109 6,800 893 Climbing Boston Center
Tue 10:30:23 PM 42.7942 -73.9933 286° West 95 109 7,600 645 Climbing Boston Center
Tue 10:31:24 PM 42.7997 -74.0361 280° West 110 127 8,100 246 Climbing Boston Center
Tue 10:32:25 PM 42.8075 -74.0844 282° West 134 154 8,100 -50 Level Boston Center
Tue 10:33:25 PM 42.8150 -74.1328 282° West 134 154 8,000 -50 Descending Boston Center
Tue 10:34:26 PM 42.8228 -74.1781 283° West 119 137 8,000  Level Boston Center
Tue 10:35:27 PM 42.8303 -74.2208 283° West 119 137 8,000 52 Level Boston Center
Tue 10:36:21 PM 42.8339 -74.2633 277° West 124 143 8,100 52 Climbing Boston Center
Tue 10:37:22 PM 42.8414 -74.3089 283° West 125 144 8,100  Level Boston Center
Tue 10:38:22 PM 42.8511 -74.3547 286° West 116 133 8,100 57 Level Boston Center
Tue 10:39:08 PM 42.8547 -74.3886 278° West 116 133 8,200 53 Climbing Boston Center
Tue 10:40:15 PM 42.8622 -74.4400 281° West 119 137 8,200  Level Boston Center
Tue 10:41:15 PM 42.8697 -74.4828 283° West 120 138 8,200 -50 Level Boston Center
Tue 10:42:16 PM 42.8753 -74.5281 280° West 123 142 8,100 -49 Descending Boston Center
Tue 10:43:17 PM 42.8847 -74.5711 287° West 122 140 8,100  Level Boston Center
Tue 10:44:17 PM 42.8903 -74.6136 280° West 116 133 8,100  Level Boston Center
Tue 10:45:18 PM 42.8956 -74.6564 280° West 116 133 8,100  Level Boston Center
Tue 10:46:18 PM 42.9053 -74.6992 287° West 117 135 8,100  Level Boston Center
Tue 10:47:19 PM 42.9125 -74.7478 281° West 117 135 8,100 -49 Level Boston Center
Tue 10:48:20 PM 42.9181 -74.7933 279° West 127 146 8,000  Descending Boston Center
Tue 10:49:20 PM 42.9253 -74.8389 282° West 115 132 8,100 50 Climbing Boston Center
Tue 10:50:21 PM 42.9308 -74.8789 281° West 117 135 8,100  Level Boston Center
Tue 10:51:21 PM 42.9381 -74.9275 281° West 119 137 8,100  Level Boston Center
Tue 10:52:22 PM 42.9433 -74.9703 280° West 113 130 8,100  Level Boston Center
Tue 10:53:23 PM 42.9528 -75.0131 287° West 118 136 8,100  Level Boston Center
Tue 10:54:23 PM 42.9581 -75.0558 280° West 118 136 8,100  Level Boston Center
Tue 10:55:24 PM 42.9653 -75.1017 282° West 119 137 8,100  Level Boston Center
Tue 10:56:25 PM 42.9725 -75.1472 282° West 122 140 8,100  Level Boston Center
Tue 10:57:25 PM 42.9800 -75.1875 284° West 122 140 8,100  Level Boston Center
Tue 10:58:26 PM 42.9831 -75.2331 275° West 119 137 8,100  Level Boston Center
Tue 10:59:27 PM 42.9944 -75.2789 289° West 122 140 8,100  Level Boston Center
Tue 11:00:27 PM 42.9975 -75.3244 275° West 119 137 8,100  Level Boston Center
Tue 11:01:28 PM 43.0047 -75.3703 282° West 116 133 8,100 -248 Level Boston Center
Tue 11:02:28 PM 43.0117 -75.4189 281° West 125 144 7,600 -645 Descending Boston Center
Tue 11:03:29 PM 43.0208 -75.4675 284° West 139 160 6,800 -738 Descending Boston Center
Tue 11:04:30 PM 43.0300 -75.5106 286° West 130 150 6,100 -397 Descending Boston Center
Tue 11:05:30 PM 43.0414 -75.5567 289° West 124 143 6,000 -347 Descending Boston Center
Tue 11:06:31 PM 43.0547 -75.6058 290° West 121 139 5,400 -639 Descending Boston Center
Tue 11:07:32 PM 43.0678 -75.6575 289° West 136 157 4,700 -645 Descending Boston Center
Tue 11:08:32 PM 43.0769 -75.7006 286° West 134 154 4,100 -347 Descending Boston Center
Tue 11:09:33 PM 43.0881 -75.7497 287° West 128 147 4,000 -347 Descending Boston Center
Tue 11:10:33 PM 43.1014 -75.7958 292° West 132 152 3,400 -496 Descending Boston Center
Tue 11:11:34 PM 43.1125 -75.8447 287° West 134 154 3,000 -197 Descending Boston Center
Tue 11:12:35 PM 43.1150 -75.8933 274° West 133 153 3,000 -50 Level Boston Center
Tue 11:13:35 PM 43.1136 -75.9417 268° West 129 148 2,900 -545 Descending Boston Center
Tue 11:14:36 PM 43.1119 -75.9983 268° West 139 160 1,900 -893 Descending Boston Center
Tue 11:15:36 PM 43.1122 -76.0553 270° West 149 171 1,100 -800 Descending Boston Center
Tue 11:17:00 PM 43.1000 -76.1000 270° West  Level FlightAware Approximate
Tue 11:24:00 PM 43.1112 -76.1063 270° West  Level Estimated
Tue 11:25:00 PM 43.1112 -76.1063 270° West  Level Estimated
Tue 11:26:00 PM 43.1112 -76.1063 270° West  Level Estimated
Tue 11:27:00 PM 43.1112 -76.1063 270° West  Level Estimated
Tue 11:28:00 PM 43.1112 -76.1063 270° West  Level Estimated
Tue 11:29:00 PM 43.1112 -76.1063 270° West  Level Estimated
Tue 11:30:00 PM 43.1112 -76.1063 270° West  Level Estimated
Tue 11:31:00 PM 43.1112 -76.1063 270° West  Level Estimated

Login

Don't have an account? Register now (free) for customized features, flight alerts, and more!